Flag Weather past 2 weeks in Dakar, Senegal

Now
79 °F

Passing clouds.


Feels Like: 82 °F
Forecast: 77 / 86 °F
Wind: 12 mph from North

Location: Dakar / Yoff

Current Time: Oct 31, 2014 at 5:54:05 AM

Latest Report: Oct 31, 2014 at 5:30 AM


Visibility: N/A

Pressure: 29.89 "Hg

Humidity: 79%

Dew point: 72 °F

Location of DakarLocation

Historic Weather in Dakar — Graph

°F

Dakar temperature yesterday

Maximum temperature yesterday: 84 °F (at 11:00 AM)
Minimum temperature yesterday: 79 °F (at 12:00 AM)
Average temperature yesterday: 81 °F

Past Weeks' High & Low Weather Summary

 TemperatureHumidityPressure
High91 °F (Oct 16, 1:30 PM)100% (Oct 26, 7:00 AM)29.98 "Hg (Oct 26, 7:00 AM)
Low73 °F (Oct 26, 4:30 AM)52% (Oct 16, 12:00 PM)29.77 "Hg (Oct 18, 4:00 PM)
Average83 °F79%29.87 "Hg
* Reported Oct 16 4:00 AM — Oct 31 4:30 AM, Dakar, Weather by CustomWeather, © 2014

Note: Actual official high and low records may vary slightly from our data, if they occured in-between our weather recording intervals... More about our weather records

Advertising

Dakar weather history for previous 24 hours

 ConditionsComfort  
Time TempWeatherWind HumidityBarometerVisibility
4:30 AM
Oct 31
79 °FPassing clouds.10 mph79%29.89 "HgN/A
4:00 AM79 °FPassing clouds.10 mph79%29.89 "HgN/A
3:30 AM79 °FPassing clouds.10 mph79%29.92 "HgN/A
3:00 AM79 °FPassing clouds.10 mph79%29.92 "HgN/A
2:30 AM79 °FClear.9 mph79%29.92 "Hg10 mi
2:00 AM79 °FClear.8 mph79%29.92 "Hg10 mi
1:30 AM79 °FClear.8 mph79%29.92 "Hg10 mi
1:00 AM79 °FClear.9 mph79%29.95 "Hg10 mi
12:30 AM79 °FClear.10 mph79%29.95 "Hg10 mi
12:00 AM79 °FClear.10 mph79%29.95 "Hg10 mi
11:30 PM
Oct 30
79 °FClear.12 mph79%29.95 "Hg10 mi
11:00 PM79 °FClear.12 mph79%29.95 "Hg10 mi
10:30 PM79 °FClear.12 mph79%29.95 "Hg10 mi
10:01 PM81 °FClear.12 mph74%29.95 "Hg10 mi
9:30 PM81 °FClear.9 mph74%29.92 "Hg10 mi
9:00 PM79 °FClear.9 mph74%29.92 "Hg10 mi
8:30 PM81 °FPassing clouds.10 mph74%29.92 "HgN/A
8:00 PM81 °FPassing clouds.10 mph74%29.89 "HgN/A
7:30 PM81 °FPassing clouds.9 mph74%29.89 "HgN/A
7:00 PM81 °FPassing clouds.9 mph70%29.89 "HgN/A
6:30 PM81 °FScattered clouds.10 mph70%29.89 "HgN/A
6:00 PM82 °FScattered clouds.9 mph70%29.89 "HgN/A
5:30 PM82 °FScattered clouds.9 mph70%29.89 "HgN/A
5:00 PM84 °FScattered clouds.12 mph62%29.86 "HgN/A
4:30 PM84 °FScattered clouds.12 mph66%29.86 "HgN/A
4:00 PM84 °FScattered clouds.13 mph66%29.86 "HgN/A
3:30 PM84 °FScattered clouds.12 mph66%29.89 "HgN/A
3:00 PM84 °FScattered clouds.10 mph66%29.89 "HgN/A
2:30 PM84 °FScattered clouds.10 mph66%29.89 "HgN/A
2:00 PM82 °FScattered clouds.10 mph66%29.89 "HgN/A
1:30 PM84 °FScattered clouds.8 mph62%29.89 "HgN/A
1:00 PM82 °FScattered clouds.9 mph70%29.92 "HgN/A
12:30 PM84 °FScattered clouds.8 mph66%29.92 "HgN/A
12:00 PM84 °FScattered clouds.9 mph62%29.92 "HgN/A
11:30 AM84 °FScattered clouds.9 mph62%29.92 "HgN/A
11:00 AM84 °FScattered clouds.9 mph66%29.92 "HgN/A
10:30 AM82 °FScattered clouds.8 mph70%29.92 "HgN/A
10:00 AM82 °FScattered clouds.9 mph70%29.92 "HgN/A
9:30 AM82 °FScattered clouds.9 mph66%29.92 "HgN/A
9:00 AM82 °FScattered clouds.9 mph70%29.89 "HgN/A
8:30 AM81 °FScattered clouds.10 mph74%29.89 "HgN/A
8:00 AM79 °FScattered clouds.7 mph79%29.86 "HgN/A
7:30 AM79 °FScattered clouds.7 mph79%29.86 "HgN/A
7:00 AM79 °FPassing clouds.7 mph79%29.86 "HgN/A
6:30 AM79 °FPassing clouds.7 mph79%29.86 "HgN/A
6:00 AM79 °FPassing clouds.6 mph79%29.86 "HgN/A
5:30 AM79 °FPassing clouds.5 mph79%29.86 "HgN/A
5:00 AM79 °FPassing clouds.6 mph84%29.83 "HgN/A
Weather by CustomWeather, © 2014

See weather overviewHow to use our weather pages